Location: Hackbridge
(51.3833°N, 0.1500°W)
Time: 13:17:16
(UTC+00:00)

Cosmos 1726 Rocket - Pass Details

Date: 13 October 2019
Orbit: 602 x 630 km, 82.5° (Epoch: 14 November)

Event Time Altitude Azimuth Distance (km) Brightness Sun altitude
Rises 18:51:45 0° 195° (SSW) 2,896 7.1 -16.2°
Reaches altitude 10° 18:53:59 10° 197° (SSW) 1,990 6.3 -16.6°
Maximum altitude 18:58:23 71° 282° (WNW) 660 3.8 -17.3°
Drops below altitude 10° 19:02:47 10° 7° (N) 1,989 6.2 -18.0°
Sets 19:05:01 0° 9° (N) 2,894 7.0 -18.3°
